Location: Penzberg
(47.7615°N, 11.3159°E)
Time: 10:30:43
(UTC+02:00)

ISS - Pass Details

Date: 09 January 2018
Orbit: 402 x 409 km, 51.6° (Epoch: 21 August)

Event Time Altitude Azimuth Distance (km) Brightness Sun altitude
Exits shadow 05:58:20 51° 8° (N) 543 -3.3 -20.0°
Drops below altitude 10° 06:01:44 10° 90° (E) 1,514 0.2 -19.4°
Enters shadow 06:55:10 -74° 294° (WNW) 12,681 3.7 -10.8°
Maximum altitude 07:35:08 48° 212° (SSW) 562 -3.1 -4.7°
